NPV1200 LIRF-LGSM

Flight info

Callsign NPV1200
Flight time 1h 46m
Altitude 37000
Route OKUNO DCT TINIX DCT ATRUP DCT VIE DCT BANAV DCT GONOT DCT DIRES DCT ORRIH DCT TALAS DCT TSL UN130 MES L609 URNIL
Aircraft A320/M-SDE3FGHIRWY/LB1

Departure

Time 2026-05-04 18:05
Airport Rome–Fiumicino Leonardo da Vinci International Airport (LIRF)

Arrival

Time 2026-05-04 19:51
Airport Samos Airport (LGSM)
Time Latitude Longitude Altitude Speed Heading
2026-05-04 17:35 41.79763 12.25664 14 ft 0 kts 296°
2026-05-04 17:55 41.79762 12.25669 14 ft 3 kts 296°
2026-05-04 17:55 41.79748 12.25699 15 ft 4 kts 314°
2026-05-04 17:55 41.79728 12.25717 15 ft 4 kts
2026-05-04 17:55 41.79717 12.25715 14 ft 0 kts 25°
2026-05-04 17:58 41.79718 12.25716 14 ft 0 kts 25°
2026-05-04 17:58 41.79730 12.25723 14 ft 4 kts 25°
2026-05-04 17:58 41.79763 12.25745 15 ft 8 kts 25°
2026-05-04 17:58 41.79816 12.25778 14 ft 9 kts 25°
2026-05-04 17:59 41.79875 12.25825 14 ft 11 kts 25°
2026-05-04 17:59 41.79949 12.25870 15 ft 12 kts 25°
2026-05-04 17:59 41.80127 12.25980 14 ft 16 kts 25°
2026-05-04 18:00 41.80231 12.26045 14 ft 17 kts 25°
2026-05-04 18:00 41.80345 12.26115 17 ft 19 kts 24°
2026-05-04 18:00 41.80451 12.26173 18 ft 12 kts
2026-05-04 18:00 41.80522 12.26215 16 ft 12 kts 62°
2026-05-04 18:01 41.80554 12.26332 16 ft 14 kts 70°
2026-05-04 18:01 41.80594 12.26464 17 ft 16 kts 67°
2026-05-04 18:01 41.80631 12.26618 15 ft 18 kts 72°
2026-05-04 18:02 41.80703 12.26880 14 ft 11 kts 69°
2026-05-04 18:02 41.80729 12.26966 13 ft 7 kts 68°
2026-05-04 18:02 41.80749 12.27037 13 ft 9 kts 68°
2026-05-04 18:02 41.80807 12.27042 15 ft 10 kts 340°
2026-05-04 18:03 41.80875 12.27008 13 ft 11 kts 340°
2026-05-04 18:03 41.80948 12.26959 13 ft 13 kts 308°
2026-05-04 18:03 41.80949 12.26897 15 ft 0 kts 252°
2026-05-04 18:03 41.80948 12.26893 14 ft 1 kts 252°
2026-05-04 18:04 41.80943 12.26875 14 ft 8 kts 252°
2026-05-04 18:04 41.80854 12.26563 17 ft 69 kts 250°
2026-05-04 18:04 41.80265 12.24433 29 ft 165 kts 248°
2026-05-04 18:05 41.79896 12.23042 701 ft 156 kts 247°
2026-05-04 18:05 41.79511 12.21688 1324 ft 155 kts 245°
2026-05-04 18:05 41.79360 12.20235 1823 ft 166 kts 281°
2026-05-04 18:05 41.79916 12.18866 2352 ft 170 kts 306°
2026-05-04 18:06 41.81313 12.16290 3363 ft 179 kts 301°
2026-05-04 18:06 41.82046 12.14823 3596 ft 199 kts 301°
2026-05-04 18:06 41.82859 12.13177 3784 ft 225 kts 301°
2026-05-04 18:07 41.83767 12.11304 4007 ft 253 kts 300°
2026-05-04 18:07 41.84764 12.09218 4368 ft 278 kts 300°
2026-05-04 18:07 41.85600 12.06872 5138 ft 276 kts 277°
2026-05-04 18:07 41.85449 12.04371 5996 ft 270 kts 244°
2026-05-04 18:08 41.84302 12.02465 6810 ft 265 kts 211°
2026-05-04 18:08 41.82555 12.01758 7531 ft 267 kts 181°
2026-05-04 18:08 41.80698 12.02054 8316 ft 271 kts 167°
2026-05-04 18:08 41.78949 12.03045 9068 ft 278 kts 149°
2026-05-04 18:09 41.76839 12.07380 10343 ft 301 kts 100°
2026-05-04 18:09 41.78053 12.13089 10670 ft 349 kts 63°
2026-05-04 18:10 41.79211 12.16055 10789 ft 369 kts 62°
2026-05-04 18:10 41.80443 12.19177 10848 ft 389 kts 62°
2026-05-04 18:10 41.81730 12.22457 11000 ft 405 kts 63°
2026-05-04 18:10 41.83042 12.25845 11410 ft 412 kts 63°
2026-05-04 18:11 41.84358 12.29283 11919 ft 417 kts 63°
2026-05-04 18:11 41.85233 12.31583 12246 ft 419 kts 63°
2026-05-04 18:11 41.86565 12.35092 12755 ft 423 kts 63°
2026-05-04 18:11 41.87906 12.38631 13266 ft 428 kts 62°
2026-05-04 18:12 41.89263 12.42209 13785 ft 431 kts 62°
2026-05-04 18:12 41.90631 12.45813 14262 ft 435 kts 62°
2026-05-04 18:12 41.92007 12.49444 14713 ft 438 kts 62°
2026-05-04 18:12 41.93395 12.53111 15157 ft 441 kts 62°
2026-05-04 18:13 41.94786 12.56801 15594 ft 445 kts 62°
2026-05-04 18:13 41.96186 12.60522 16035 ft 448 kts 62°
2026-05-04 18:13 41.99014 12.68043 16917 ft 454 kts 62°
2026-05-04 18:14 42.00422 12.71789 17352 ft 457 kts 62°
2026-05-04 18:14 42.01854 12.75610 17791 ft 460 kts 62°
2026-05-04 18:14 42.03301 12.79472 18246 ft 462 kts 62°
2026-05-04 18:15 42.06329 12.87125 19049 ft 466 kts 59°
2026-05-04 18:15 42.09586 12.94716 19821 ft 470 kts 58°
2026-05-04 18:15 42.11236 12.98539 20206 ft 473 kts 59°
2026-05-04 18:16 42.12845 13.02429 20572 ft 475 kts 60°
2026-05-04 18:16 42.14403 13.06370 20933 ft 477 kts 61°
2026-05-04 18:16 42.15932 13.10354 21260 ft 480 kts 62°
2026-05-04 18:17 42.18985 13.18394 21894 ft 484 kts 61°
2026-05-04 18:17 42.20532 13.22434 22202 ft 486 kts 61°
2026-05-04 18:17 42.23652 13.30485 22806 ft 489 kts 61°
2026-05-04 18:18 42.25248 13.34566 23101 ft 492 kts 61°
2026-05-04 18:18 42.26845 13.38653 23415 ft 494 kts 61°
2026-05-04 18:18 42.28449 13.42779 23695 ft 496 kts 61°
2026-05-04 18:18 42.30045 13.46913 23938 ft 498 kts 61°
2026-05-04 18:19 42.32769 13.55551 24418 ft 505 kts 74°
2026-05-04 18:19 42.33423 13.60231 24640 ft 509 kts 83°
2026-05-04 18:19 42.33559 13.65016 24865 ft 511 kts 92°
2026-05-04 18:20 42.33166 13.69789 25173 ft 512 kts 101°
2026-05-04 18:20 42.32401 13.74495 25470 ft 513 kts 102°
2026-05-04 18:20 42.31614 13.79203 25747 ft 514 kts 102°
2026-05-04 18:20 42.30823 13.83920 26048 ft 515 kts 102°
2026-05-04 18:21 42.30024 13.88648 26262 ft 517 kts 102°
2026-05-04 18:21 42.29223 13.93383 26579 ft 517 kts 102°
2026-05-04 18:21 42.28420 13.98114 26910 ft 518 kts 102°
2026-05-04 18:21 42.27613 14.02856 27212 ft 519 kts 102°
2026-05-04 18:22 42.26803 14.07611 27526 ft 520 kts 102°
2026-05-04 18:22 42.25991 14.12365 27857 ft 521 kts 102°
2026-05-04 18:22 42.25176 14.17134 28175 ft 522 kts 102°
2026-05-04 18:22 42.24370 14.21849 28496 ft 523 kts 102°
2026-05-04 18:23 42.23550 14.26617 28940 ft 521 kts 102°
2026-05-04 18:23 42.22728 14.31382 29335 ft 521 kts 102°
2026-05-04 18:23 42.21904 14.36137 29697 ft 522 kts 101°
2026-05-04 18:23 42.21075 14.40902 30042 ft 522 kts 101°
2026-05-04 18:24 42.20242 14.45677 30359 ft 523 kts 101°
2026-05-04 18:24 42.19407 14.50462 30675 ft 523 kts 101°
2026-05-04 18:24 42.18574 14.55230 31008 ft 523 kts 101°
2026-05-04 18:24 42.17740 14.60003 31347 ft 523 kts 101°
2026-05-04 18:25 42.16904 14.64771 31667 ft 523 kts 101°
2026-05-04 18:25 42.16066 14.69533 32007 ft 522 kts 101°
2026-05-04 18:25 42.15224 14.74296 32338 ft 522 kts 101°
2026-05-04 18:25 42.14381 14.79049 32673 ft 522 kts 101°
2026-05-04 18:26 42.13536 14.83805 33005 ft 521 kts 101°
2026-05-04 18:26 42.12692 14.88553 33347 ft 521 kts 101°
2026-05-04 18:26 42.11855 14.93242 33688 ft 521 kts 102°
2026-05-04 18:26 42.11008 14.97959 34140 ft 517 kts 102°
2026-05-04 18:27 42.10162 15.02665 34497 ft 515 kts 101°
2026-05-04 18:27 42.09320 15.07348 34841 ft 514 kts 101°
2026-05-04 18:27 42.08476 15.12018 35168 ft 513 kts 101°
2026-05-04 18:27 42.07635 15.16672 35521 ft 511 kts 101°
2026-05-04 18:28 42.06795 15.21313 35852 ft 510 kts 101°
2026-05-04 18:28 42.05956 15.25945 36174 ft 509 kts 101°
2026-05-04 18:28 42.05116 15.30561 36497 ft 507 kts 101°
2026-05-04 18:28 42.04275 15.35154 36857 ft 505 kts 101°
2026-05-04 18:29 42.03434 15.39737 37056 ft 504 kts 101°
2026-05-04 18:29 42.02594 15.44314 37108 ft 504 kts 101°
2026-05-04 18:29 42.00916 15.53455 37114 ft 503 kts 101°
2026-05-04 18:30 41.98375 15.67138 37136 ft 502 kts 102°
2026-05-04 18:31 41.96684 15.76172 37127 ft 501 kts 102°
2026-05-04 18:31 41.94985 15.85253 37147 ft 501 kts 102°
2026-05-04 18:32 41.93281 15.94338 37115 ft 502 kts 102°
2026-05-04 18:32 41.91562 16.03421 37128 ft 502 kts 102°
2026-05-04 18:33 41.89843 16.12489 37130 ft 501 kts 102°
2026-05-04 18:33 41.88145 16.21559 37134 ft 501 kts 101°
2026-05-04 18:34 41.86449 16.30614 37134 ft 500 kts 102°
2026-05-04 18:34 41.84733 16.39666 37143 ft 500 kts 102°
2026-05-04 18:35 41.83012 16.48691 37137 ft 498 kts 102°
2026-05-04 18:35 41.81316 16.57533 37122 ft 484 kts 102°
2026-05-04 18:36 41.79638 16.66261 37111 ft 483 kts 102°
2026-05-04 18:36 41.77956 16.74985 37118 ft 483 kts 101°
2026-05-04 18:37 41.76284 16.83643 37120 ft 483 kts 101°
2026-05-04 18:37 41.74583 16.92354 37124 ft 483 kts 102°
2026-05-04 18:38 41.72778 17.01029 37127 ft 485 kts 108°
2026-05-04 18:38 41.70000 17.09287 37149 ft 487 kts 113°
2026-05-04 18:39 41.67118 17.17469 37150 ft 486 kts 113°
2026-05-04 18:39 41.64243 17.25641 37148 ft 485 kts 113°
2026-05-04 18:40 41.61364 17.33811 37145 ft 485 kts 113°
2026-05-04 18:40 41.58473 17.41965 37150 ft 485 kts 113°
2026-05-04 18:41 41.55572 17.50097 37148 ft 484 kts 113°
2026-05-04 18:41 41.52673 17.58204 37152 ft 484 kts 113°
2026-05-04 18:42 41.49796 17.66250 37148 ft 483 kts 113°
2026-05-04 18:42 41.46893 17.74332 37142 ft 483 kts 113°
2026-05-04 18:43 41.43990 17.82405 37161 ft 483 kts 113°
2026-05-04 18:43 41.41082 17.90462 37158 ft 482 kts 113°
2026-05-04 18:44 41.38177 17.98505 37157 ft 481 kts 113°
2026-05-04 18:44 41.35264 18.06537 37149 ft 481 kts 114°
2026-05-04 18:45 41.32347 18.14554 37150 ft 481 kts 114°
2026-05-04 18:45 41.29425 18.22554 37146 ft 481 kts 114°
2026-05-04 18:46 41.26503 18.30544 37142 ft 481 kts 114°
2026-05-04 18:46 41.23614 18.38561 37143 ft 480 kts 109°
2026-05-04 18:47 41.21650 18.46980 37161 ft 477 kts 103°
2026-05-04 18:47 41.19823 18.55441 37160 ft 476 kts 103°
2026-05-04 18:48 41.17983 18.63885 37164 ft 476 kts 103°
2026-05-04 18:48 41.16146 18.72322 37164 ft 476 kts 103°
2026-05-04 18:49 41.14311 18.80688 37174 ft 476 kts 103°
2026-05-04 18:49 41.12464 18.89110 37170 ft 475 kts 103°
2026-05-04 18:50 41.10607 18.97525 37167 ft 475 kts 103°
2026-05-04 18:50 41.08741 19.05927 37170 ft 474 kts 103°
2026-05-04 18:51 41.06874 19.14310 37185 ft 474 kts 101°
2026-05-04 18:51 41.06058 19.22849 37175 ft 463 kts 83°
2026-05-04 18:52 41.06594 19.31306 37163 ft 461 kts 80°
2026-05-04 18:52 41.07153 19.39783 37161 ft 461 kts 81°
2026-05-04 18:53 41.07699 19.48265 37178 ft 462 kts 81°
2026-05-04 18:53 41.08243 19.56693 37161 ft 462 kts 81°
2026-05-04 18:54 41.08780 19.65179 37167 ft 462 kts 81°
2026-05-04 18:54 41.09317 19.73665 37165 ft 462 kts 81°
2026-05-04 18:55 41.09847 19.82151 37188 ft 462 kts 81°
2026-05-04 18:55 41.10631 19.94900 37176 ft 462 kts 81°
2026-05-04 18:56 41.11139 20.03396 37170 ft 462 kts 81°
2026-05-04 18:56 41.11647 20.11875 37167 ft 462 kts 81°
2026-05-04 18:57 41.12154 20.20308 37179 ft 462 kts 81°
2026-05-04 18:57 41.12648 20.28801 37171 ft 462 kts 81°
2026-05-04 18:58 41.13129 20.37295 37165 ft 462 kts 81°
2026-05-04 18:58 41.13605 20.45782 37163 ft 462 kts 81°
2026-05-04 18:59 41.14080 20.54276 37169 ft 461 kts 82°
2026-05-04 18:59 41.14165 20.62809 37194 ft 465 kts 89°
2026-05-04 19:00 41.13768 20.71384 37186 ft 465 kts 89°
2026-05-04 19:00 41.13376 20.79945 37183 ft 465 kts 89°
2026-05-04 19:01 41.12983 20.88447 37187 ft 465 kts 89°
2026-05-04 19:01 41.12579 20.96999 37172 ft 464 kts 89°
2026-05-04 19:02 41.12170 21.05549 37161 ft 465 kts 90°
2026-05-04 19:02 41.11747 21.14098 37166 ft 464 kts 90°
2026-05-04 19:03 41.11394 21.21256 37148 ft 465 kts 90°
2026-05-04 19:03 41.10970 21.29763 37144 ft 465 kts 90°
2026-05-04 19:04 41.10529 21.38323 37136 ft 465 kts 90°
2026-05-04 19:04 41.10094 21.46881 37134 ft 465 kts 90°
2026-05-04 19:05 41.09645 21.55443 37129 ft 465 kts 90°
2026-05-04 19:05 41.09189 21.64003 37128 ft 465 kts 90°
2026-05-04 19:06 41.08725 21.72566 37125 ft 466 kts 90°
2026-05-04 19:06 41.08247 21.81127 37143 ft 466 kts 90°
2026-05-04 19:07 41.07266 21.89629 37136 ft 471 kts 104°
2026-05-04 19:07 41.04400 21.97410 37129 ft 478 kts 123°
2026-05-04 19:08 41.00390 22.04450 37114 ft 479 kts 125°
2026-05-04 19:08 40.96384 22.11490 37114 ft 479 kts 124°
2026-05-04 19:09 40.92368 22.18529 37132 ft 479 kts 125°
2026-05-04 19:09 40.88347 22.25553 37117 ft 479 kts 125°
2026-05-04 19:10 40.84326 22.32553 37108 ft 478 kts 125°
2026-05-04 19:10 40.80296 22.39555 37100 ft 478 kts 125°
2026-05-04 19:11 40.76266 22.46554 37101 ft 479 kts 125°
2026-05-04 19:11 40.72233 22.53537 37106 ft 478 kts 125°
2026-05-04 19:12 40.66180 22.63983 37105 ft 478 kts 125°
2026-05-04 19:13 40.62171 22.70895 37094 ft 478 kts 125°
2026-05-04 19:13 40.58152 22.77787 37097 ft 478 kts 126°
2026-05-04 19:14 40.54079 22.84762 37109 ft 477 kts 126°
2026-05-04 19:14 40.50033 22.91674 37108 ft 477 kts 126°
2026-05-04 19:15 40.45979 22.98558 37106 ft 476 kts 128°
2026-05-04 19:15 40.41471 23.04954 37102 ft 477 kts 132°
2026-05-04 19:16 40.36904 23.11265 37116 ft 477 kts 132°
2026-05-04 19:16 40.32334 23.17557 37118 ft 476 kts 132°
2026-05-04 19:17 40.27768 23.23830 37122 ft 475 kts 132°
2026-05-04 19:17 40.23214 23.30093 37120 ft 475 kts 132°
2026-05-04 19:18 40.18660 23.36347 37114 ft 474 kts 132°
2026-05-04 19:18 40.14129 23.42546 37105 ft 475 kts 133°
2026-05-04 19:19 40.09561 23.48776 37116 ft 475 kts 133°
2026-05-04 19:19 40.04996 23.55001 37112 ft 475 kts 133°
2026-05-04 19:20 40.00425 23.61218 37113 ft 474 kts 133°
2026-05-04 19:20 39.95850 23.67428 37109 ft 474 kts 133°
2026-05-04 19:21 39.91275 23.73631 37109 ft 474 kts 133°
2026-05-04 19:21 39.86690 23.79826 37112 ft 475 kts 133°
2026-05-04 19:22 39.82100 23.86014 37112 ft 475 kts 133°
2026-05-04 19:22 39.77536 23.92153 37106 ft 475 kts 133°
2026-05-04 19:23 39.72936 23.98331 37108 ft 476 kts 133°
2026-05-04 19:23 39.68335 24.04506 37106 ft 476 kts 133°
2026-05-04 19:24 39.63727 24.10672 37112 ft 476 kts 133°
2026-05-04 19:24 39.59104 24.16835 37108 ft 476 kts 133°
2026-05-04 19:25 39.54484 24.22994 37098 ft 477 kts 133°
2026-05-04 19:25 39.49862 24.29141 37099 ft 477 kts 133°
2026-05-04 19:26 39.45232 24.35299 37106 ft 477 kts 133°
2026-05-04 19:26 39.40618 24.41407 37111 ft 477 kts 133°
2026-05-04 19:27 39.35964 24.47546 37109 ft 478 kts 133°
2026-05-04 19:27 39.31320 24.53693 37106 ft 478 kts 133°
2026-05-04 19:28 39.26700 24.59872 37100 ft 478 kts 133°
2026-05-04 19:28 39.22087 24.66061 37102 ft 479 kts 133°
2026-05-04 19:29 39.17456 24.72242 37103 ft 479 kts 133°
2026-05-04 19:29 39.12811 24.78410 37102 ft 479 kts 133°
2026-05-04 19:30 39.08155 24.84557 37105 ft 480 kts 133°
2026-05-04 19:30 39.03458 24.90652 37106 ft 480 kts 134°
2026-05-04 19:31 38.98766 24.96700 37100 ft 480 kts 134°
2026-05-04 19:31 38.94049 25.02789 37112 ft 481 kts 134°
2026-05-04 19:32 38.89331 25.08883 37103 ft 481 kts 134°
2026-05-04 19:32 38.84596 25.14973 37107 ft 481 kts 134°
2026-05-04 19:33 38.79865 25.21057 37106 ft 482 kts 134°
2026-05-04 19:33 38.75158 25.27100 37106 ft 482 kts 134°
2026-05-04 19:34 38.70423 25.33169 36603 ft 481 kts 135°
2026-05-04 19:34 38.68062 25.36189 37340 ft 479 kts 134°
2026-05-04 19:34 38.65700 25.39207 37115 ft 481 kts 134°
2026-05-04 19:35 38.60951 25.45260 37095 ft 483 kts 134°
2026-05-04 19:35 38.56181 25.51321 37095 ft 483 kts 134°
2026-05-04 19:36 38.51445 25.57340 37092 ft 483 kts 134°
2026-05-04 19:36 38.46681 25.63393 37093 ft 483 kts 134°
2026-05-04 19:37 38.41903 25.69439 36598 ft 483 kts 134°
2026-05-04 19:37 38.39502 25.72440 36027 ft 481 kts 135°
2026-05-04 19:37 38.37073 25.75337 35571 ft 478 kts 136°
2026-05-04 19:37 38.34590 25.78178 34699 ft 484 kts 137°
2026-05-04 19:38 38.32063 25.80991 34145 ft 478 kts 137°
2026-05-04 19:38 38.29550 25.83758 32873 ft 476 kts 137°
2026-05-04 19:38 38.27067 25.86502 31907 ft 468 kts 136°
2026-05-04 19:38 38.24639 25.89209 30997 ft 460 kts 135°
2026-05-04 19:39 38.22264 25.91880 30090 ft 451 kts 135°
2026-05-04 19:39 38.19937 25.94515 29012 ft 444 kts 135°
2026-05-04 19:39 38.17669 25.97090 28030 ft 445 kts 135°
2026-05-04 19:39 38.15339 25.99741 26998 ft 455 kts 135°
2026-05-04 19:40 38.12948 26.02450 25818 ft 464 kts 135°
2026-05-04 19:40 38.10513 26.05198 24627 ft 472 kts 136°
2026-05-04 19:40 38.08040 26.07981 23485 ft 479 kts 137°
2026-05-04 19:40 38.05541 26.10788 22501 ft 478 kts 136°
2026-05-04 19:41 38.03056 26.13575 21595 ft 475 kts 136°
2026-05-04 19:41 38.00587 26.16342 20670 ft 473 kts 136°
2026-05-04 19:41 37.98125 26.19098 19763 ft 471 kts 136°
2026-05-04 19:41 37.95674 26.21839 18860 ft 470 kts 136°
2026-05-04 19:42 37.93225 26.24570 17901 ft 468 kts 136°
2026-05-04 19:42 37.90786 26.27287 16994 ft 464 kts 136°
2026-05-04 19:42 37.88373 26.29976 16090 ft 460 kts 136°
2026-05-04 19:42 37.85979 26.32643 15295 ft 455 kts 136°
2026-05-04 19:43 37.83614 26.35275 14461 ft 450 kts 136°
2026-05-04 19:43 37.81314 26.37831 13545 ft 432 kts 136°
2026-05-04 19:43 37.79108 26.40278 12808 ft 411 kts 136°
2026-05-04 19:43 37.77187 26.42855 12138 ft 406 kts 121°
2026-05-04 19:44 37.75715 26.45947 11479 ft 413 kts 117°
2026-05-04 19:44 37.74328 26.49079 10837 ft 415 kts 117°
2026-05-04 19:44 37.72941 26.52259 10202 ft 410 kts 116°
2026-05-04 19:44 37.71586 26.55390 9536 ft 404 kts 116°
2026-05-04 19:45 37.70252 26.58480 8867 ft 398 kts 116°
2026-05-04 19:45 37.68935 26.61527 8188 ft 391 kts 116°
2026-05-04 19:45 37.67635 26.64514 7539 ft 386 kts 116°
2026-05-04 19:45 37.66343 26.67433 7180 ft 373 kts 116°
2026-05-04 19:46 37.65089 26.70220 6931 ft 358 kts 116°
2026-05-04 19:46 37.64117 26.73024 6693 ft 342 kts 105°
2026-05-04 19:46 37.63380 26.75826 6446 ft 331 kts 105°
2026-05-04 19:46 37.62667 26.78545 6187 ft 322 kts 104°
2026-05-04 19:47 37.61965 26.81189 5928 ft 314 kts 103°
2026-05-04 19:47 37.61462 26.83828 5528 ft 308 kts 97°
2026-05-04 19:47 37.61061 26.86452 5034 ft 309 kts 96°
2026-05-04 19:47 37.60832 26.89134 4525 ft 308 kts 89°
2026-05-04 19:48 37.60708 26.91820 4011 ft 303 kts 88°
2026-05-04 19:48 37.60592 26.94396 3738 ft 283 kts 86°
2026-05-04 19:48 37.60907 26.96706 3491 ft 257 kts 59°
2026-05-04 19:48 37.61892 26.98532 3239 ft 251 kts 45°
2026-05-04 19:49 37.63108 27.00070 2949 ft 245 kts 28°
2026-05-04 19:49 37.64662 27.00815 2562 ft 238 kts
2026-05-04 19:49 37.66271 27.00712 1909 ft 229 kts 341°
2026-05-04 19:49 37.67537 26.99532 1801 ft 234 kts 306°
2026-05-04 19:50 37.68228 26.97685 948 ft 232 kts 294°
2026-05-04 19:50 37.68589 26.95835 590 ft 197 kts 283°
2026-05-04 19:50 37.68715 26.94246 319 ft 167 kts 276°
2026-05-04 19:50 37.68795 26.92871 133 ft 150 kts 279°
2026-05-04 19:51 37.68878 26.91691 20 ft 120 kts 277°
2026-05-04 19:51 37.68916 26.91143 21 ft 29 kts 279°
2026-05-04 19:51 37.69002 26.91069 20 ft 15 kts 39°
2026-05-04 19:51 37.69010 26.91206 20 ft 17 kts 93°
2026-05-04 19:52 37.69066 26.91312 20 ft 7 kts 76°
2026-05-04 19:52 37.69067 26.91315 20 ft 0 kts 76°